Red Wing, WI

1:26 AM CST on December 16, 2019 (GMT -0600)
Red Wing Municipal

Weather History for KRGK - November, 2019

Change the Weather History Date:

Thursday, November 14, 2019

  Actual Average Record
Temperature  
Mean Temperature 26 °F -  
Max Temperature 32 °F 41 °F 64 °F (2001)
Min Temperature 21 °F 27 °F 3 °F (1996)
Degree Days  
Heating Degree Days 38    
Moisture  
Dew Point 19 °F    
Average Humidity 74    
Maximum Humidity 100    
Minimum Humidity 60    
Precipitation  
Precipitation 0.00 in - - ()
Sea Level Pressure  
Sea Level Pressure 30.19 in    
Wind  
Wind Speed 6 mph (WNW)    
Max Wind Speed 14 mph    
Max Gust Speed 20 mph    
Visibility 10 miles    
Events      
Averages and records for this station are not official NWS values.
T = Trace of Precipitation, MM = Missing Value Source: NWS Daily Summary

Daily Weather History Graph

Daily Weather History Graph

Search for Another Location

Airport or City:

Astronomy

Nov. 14, 2019 Rise Set
Actual Time 7:04 AM CST 4:43 PM CST
Civil Twilight 6:33 AM CST 5:14 PM CST
Nautical Twilight 5:58 AM CST 5:49 PM CST
Astronomical Twilight 5:23 AM CST 6:24 PM CST
Moon 6:26 PM CST (11/14) 9:03 AM CST (11/14)
Length of Visible Light 10h 41m
Length of Day
9h 38m
Waning Gibbous, 95% of the Moon is Illuminated
Nov 14
Waning Gibbous
Nov 19
Last Quarter
Nov 26
New
Dec 4
First Quarter
Dec 11
Full

Hourly Weather History & Observations

Time (CST) Temp. Windchill Dew Point Humidity Pressure Visibility Wind Dir Wind Speed Gust Speed Precip Events Conditions
12:15 AM 26.6 °F 21.2 °F 21.2 °F 80% 30.09 in 10.0 mi North 4.6 mph - N/A   Overcast
12:35 AM 26.6 °F 19.1 °F 21.2 °F 80% 30.09 in 10.0 mi NNW 6.9 mph - N/A   Overcast
12:36 AM 26.6 °F 19.1 °F 21.2 °F 80% 30.09 in 10.0 mi NNW 6.9 mph - N/A   Overcast
12:59 AM 26.6 °F 21.2 °F 21.2 °F 80% 30.10 in 10.0 mi North 4.6 mph - N/A   Overcast
1:16 AM 26.6 °F 19.1 °F 21.2 °F 80% 30.10 in 10.0 mi NNW 6.9 mph - N/A   Overcast
1:36 AM 26.6 °F 20.0 °F 19.4 °F 74% 30.11 in 10.0 mi North 5.8 mph - N/A   Overcast
1:55 AM 26.6 °F 18.2 °F 19.4 °F 74% 30.12 in 10.0 mi North 8.1 mph - N/A   Overcast
1:56 AM 26.6 °F 18.2 °F 19.4 °F 74% 30.12 in 10.0 mi North 8.1 mph - N/A   Overcast
2:15 AM 26.6 °F 22.6 °F 19.4 °F 74% 30.12 in 10.0 mi NNW 3.5 mph - N/A   Overcast
2:19 AM 26.6 °F - 19.4 °F 74% 30.12 in 10.0 mi Calm Calm - N/A   Overcast
2:38 AM 26.6 °F - 19.4 °F 74% 30.12 in 10.0 mi Calm Calm - N/A   Overcast
2:55 AM 26.6 °F - 19.4 °F 74% 30.13 in 10.0 mi Calm Calm - N/A   Overcast
3:16 AM 26.6 °F 21.2 °F 19.4 °F 74% 30.13 in 10.0 mi NNW 4.6 mph - N/A   Overcast
3:35 AM 26.6 °F 22.6 °F 19.4 °F 74% 30.13 in 10.0 mi WNW 3.5 mph - N/A   Overcast
3:36 AM 26.6 °F 22.6 °F 19.4 °F 74% 30.13 in 10.0 mi NW 3.5 mph - N/A   Overcast
3:58 AM 26.6 °F 21.2 °F 19.4 °F 74% 30.14 in 10.0 mi NNW 4.6 mph - N/A   Overcast
4:17 AM 26.6 °F 21.2 °F 19.4 °F 74% 30.15 in 10.0 mi NW 4.6 mph - N/A   Overcast
4:36 AM 26.6 °F 21.2 °F 19.4 °F 74% 30.15 in 10.0 mi NNW 4.6 mph - N/A   Overcast
4:55 AM 26.6 °F 22.6 °F 21.2 °F 80% 30.15 in 10.0 mi WNW 3.5 mph - N/A   Overcast
5:15 AM 26.6 °F 21.2 °F 19.4 °F 74% 30.17 in 10.0 mi NNW 4.6 mph - N/A   Overcast
5:19 AM 26.6 °F 20.0 °F 19.4 °F 74% 30.17 in 10.0 mi NW 5.8 mph - N/A   Overcast
5:37 AM 26.6 °F 19.1 °F 19.4 °F 74% 30.17 in 10.0 mi NNW 6.9 mph - N/A   Overcast
5:56 AM 26.6 °F 20.0 °F 19.4 °F 74% 30.18 in 10.0 mi NNW 5.8 mph - N/A   Overcast
6:15 AM 26.6 °F 19.1 °F 19.4 °F 74% 30.18 in 10.0 mi NNW 6.9 mph - N/A   Overcast
6:16 AM 26.6 °F 20.0 °F 19.4 °F 74% 30.18 in 10.0 mi NNW 5.8 mph - N/A   Overcast
6:35 AM 26.6 °F 21.2 °F 19.4 °F 74% 30.19 in 10.0 mi NNW 4.6 mph - N/A   Overcast
6:36 AM 26.6 °F 19.1 °F 19.4 °F 74% 30.19 in 10.0 mi NNW 6.9 mph - N/A   Overcast
6:58 AM 24.8 °F 19.1 °F 17.6 °F 74% 30.20 in 10.0 mi NNW 4.6 mph - N/A   Overcast
7:17 AM 24.8 °F 16.1 °F 17.6 °F 74% 30.21 in 10.0 mi NW 8.1 mph - N/A   Overcast
7:36 AM 24.8 °F 17.9 °F 17.6 °F 74% 30.22 in 10.0 mi NW 5.8 mph - N/A   Overcast
7:55 AM 24.8 °F 17.9 °F 17.6 °F 74% 30.22 in 10.0 mi NW 5.8 mph - N/A   Overcast
7:56 AM 24.8 °F 17.9 °F 17.6 °F 74% 30.22 in 10.0 mi NW 5.8 mph - N/A   Overcast
8:15 AM 24.8 °F 14.0 °F 17.6 °F 74% 30.23 in 10.0 mi West 11.5 mph - N/A   Overcast
8:20 AM 24.8 °F 15.3 °F 17.6 °F 74% 30.23 in 10.0 mi WNW 9.2 mph - N/A   Overcast
8:38 AM 24.8 °F 13.4 °F 17.6 °F 74% 30.23 in 10.0 mi WNW 12.7 mph - N/A   Overcast
8:56 AM 24.8 °F 16.1 °F 17.6 °F 74% 30.23 in 10.0 mi West 8.1 mph - N/A   Overcast
9:15 AM 24.8 °F 17.9 °F 17.6 °F 74% 30.24 in 10.0 mi WNW 5.8 mph - N/A   Overcast
9:16 AM 24.8 °F 16.9 °F 17.6 °F 74% 30.24 in 10.0 mi WNW 6.9 mph - N/A   Overcast
9:35 AM 24.8 °F 14.0 °F 17.6 °F 74% 30.24 in 10.0 mi West 11.5 mph - N/A   Overcast
9:36 AM 24.8 °F 14.6 °F 17.6 °F 74% 30.24 in 10.0 mi WNW 10.4 mph - N/A   Overcast
9:59 AM 24.8 °F 14.6 °F 17.6 °F 74% 30.25 in 10.0 mi West 10.4 mph - N/A   Overcast
10:16 AM 24.8 °F 14.0 °F 15.8 °F 69% 30.26 in 10.0 mi WNW 11.5 mph - N/A   Overcast
10:36 AM 24.8 °F 14.0 °F 17.6 °F 74% 30.27 in 10.0 mi WNW 11.5 mph 19.6 mph N/A   Overcast
10:55 AM 24.8 °F 14.6 °F 17.6 °F 74% 30.26 in 10.0 mi West 10.4 mph - N/A   Overcast
10:56 AM 24.8 °F 15.3 °F 17.6 °F 74% 30.26 in 10.0 mi West 9.2 mph - N/A   Mostly Cloudy
11:15 AM 24.8 °F 14.0 °F 17.6 °F 74% 30.24 in 10.0 mi WSW 11.5 mph - N/A   Mostly Cloudy
11:37 AM 26.6 °F 16.8 °F 17.6 °F 69% 30.23 in 10.0 mi West 10.4 mph - N/A   Scattered Clouds
11:55 AM 26.6 °F 17.5 °F 17.6 °F 69% 30.24 in 10.0 mi West 9.2 mph - N/A   Clear
12:15 PM 28.4 °F 19.1 °F 17.6 °F 64% 30.24 in 10.0 mi West 10.4 mph - N/A   Clear
12:16 PM 28.4 °F 19.7 °F 17.6 °F 64% 30.24 in 10.0 mi West 9.2 mph - N/A   Clear
12:36 PM 28.4 °F 20.4 °F 17.6 °F 64% 30.23 in 10.0 mi West 8.1 mph - N/A   Clear
12:58 PM 28.4 °F 18.0 °F 17.6 °F 64% 30.23 in 10.0 mi West 12.7 mph - N/A   Clear
1:16 PM 30.2 °F 19.8 °F 17.6 °F 60% 30.23 in 10.0 mi West 13.8 mph - N/A   Clear
1:36 PM 30.2 °F 20.2 °F 19.4 °F 64% 30.22 in 10.0 mi West 12.7 mph - N/A   Clear
1:55 PM 30.2 °F 20.2 °F 19.4 °F 64% 30.22 in 10.0 mi West 12.7 mph 16.1 mph N/A   Clear
1:56 PM 30.2 °F 20.8 °F 19.4 °F 64% 30.22 in 10.0 mi West 11.5 mph 16.1 mph N/A   Clear
2:15 PM 30.2 °F 21.3 °F 19.4 °F 64% 30.21 in 10.0 mi West 10.4 mph 18.4 mph N/A   Clear
2:19 PM 30.2 °F 20.8 °F 19.4 °F 64% 30.21 in 10.0 mi West 11.5 mph 18.4 mph N/A   Clear
2:38 PM 32.0 °F 24.2 °F 19.4 °F 60% 30.21 in 10.0 mi West 9.2 mph - N/A   Clear
2:56 PM 30.2 °F 21.9 °F 19.4 °F 64% 30.20 in 10.0 mi SW 9.2 mph - N/A   Clear
3:15 PM 32.0 °F 24.8 °F 19.4 °F 60% 30.20 in 10.0 mi West 8.1 mph - N/A   Clear
3:16 PM 32.0 °F 24.2 °F 19.4 °F 60% 30.20 in 10.0 mi West 9.2 mph - N/A   Clear
3:35 PM 30.2 °F 21.9 °F 19.4 °F 64% 30.21 in 10.0 mi West 9.2 mph - N/A   Scattered Clouds
3:36 PM 30.2 °F 21.9 °F 19.4 °F 64% 30.21 in 10.0 mi West 9.2 mph - N/A   Mostly Cloudy
3:59 PM 30.2 °F 22.6 °F 19.4 °F 64% 30.20 in 10.0 mi WSW 8.1 mph - N/A   Overcast
4:36 PM 30.2 °F 23.4 °F 19.4 °F 64% 30.18 in 10.0 mi SW 6.9 mph - N/A   Overcast
4:55 PM 30.2 °F 20.8 °F 19.4 °F 64% 30.18 in 10.0 mi WSW 11.5 mph - N/A   Scattered Clouds
4:56 PM 30.2 °F 21.9 °F 19.4 °F 64% 30.19 in 10.0 mi WSW 9.2 mph - N/A   Scattered Clouds
5:15 PM 28.4 °F 21.2 °F 19.4 °F 69% 30.19 in 10.0 mi West 6.9 mph - N/A   Clear
5:20 PM 28.4 °F 22.2 °F 19.4 °F 69% 30.19 in 10.0 mi WSW 5.8 mph - N/A   Clear
5:37 PM 28.4 °F 19.7 °F 19.4 °F 69% 30.18 in 10.0 mi SW 9.2 mph - N/A   Clear
6:15 PM 28.4 °F 19.1 °F 21.2 °F 74% 30.18 in 10.0 mi WSW 10.4 mph - N/A   Clear
6:16 PM 28.4 °F 19.1 °F 21.2 °F 74% 30.18 in 10.0 mi WSW 10.4 mph - N/A   Clear
6:35 PM 26.6 °F 18.2 °F 21.2 °F 80% 30.18 in 10.0 mi WSW 8.1 mph - N/A   Clear
6:36 PM 26.6 °F 18.2 °F 19.4 °F 74% 30.18 in 10.0 mi WSW 8.1 mph - N/A   Clear
6:59 PM 26.6 °F 19.1 °F 19.4 °F 74% 30.18 in 10.0 mi West 6.9 mph - N/A   Clear
7:17 PM 26.6 °F 19.1 °F 19.4 °F 74% 30.18 in 10.0 mi WSW 6.9 mph - N/A   Clear
7:35 PM 26.6 °F 22.6 °F 21.2 °F 80% 30.18 in 10.0 mi WSW 3.5 mph - N/A   Clear
7:36 PM 26.6 °F 22.6 °F 21.2 °F 80% 30.18 in 10.0 mi WSW 3.5 mph - N/A   Clear
7:55 PM 26.6 °F - 21.2 °F 80% 30.18 in 10.0 mi Calm Calm - N/A   Clear
7:56 PM 26.6 °F - 21.2 °F 80% 30.18 in 10.0 mi Calm Calm - N/A   Clear
8:15 PM 26.6 °F - 21.2 °F 80% 30.18 in 10.0 mi Calm Calm - N/A   Clear
8:19 PM 26.6 °F - 21.2 °F 80% 30.18 in 10.0 mi Calm Calm - N/A   Clear
8:37 PM 24.8 °F - 19.4 °F 80% 30.18 in 10.0 mi Calm Calm - N/A   Clear
8:55 PM 23.0 °F - 19.4 °F 86% 30.18 in 10.0 mi Calm Calm - N/A   Clear
9:15 PM 23.0 °F - 19.4 °F 86% 30.18 in 10.0 mi Calm Calm - N/A   Clear
9:16 PM 23.0 °F - 19.4 °F 86% 30.18 in 10.0 mi Calm Calm - N/A   Clear
9:35 PM 23.0 °F - 19.4 °F 86% 30.18 in 7.0 mi Calm Calm - N/A   Clear
9:58 PM 21.2 °F - 19.4 °F 93% 30.18 in 10.0 mi Calm Calm - N/A   Clear
10:16 PM 21.2 °F - 19.4 °F 93% 30.18 in 10.0 mi Calm Calm - N/A   Clear
10:36 PM 21.2 °F - 19.4 °F 93% 30.19 in 10.0 mi Calm Calm - N/A   Mostly Cloudy
10:55 PM 24.8 °F - 23.0 °F 93% 30.19 in 10.0 mi Calm Calm - N/A   Overcast
10:56 PM 24.8 °F - 23.0 °F 93% 30.19 in 10.0 mi Calm Calm - N/A   Overcast
11:15 PM 23.0 °F - 23.0 °F 100% 30.19 in 10.0 mi Calm Calm - N/A   Mostly Cloudy
11:37 PM 23.0 °F - 21.2 °F 93% 30.20 in 10.0 mi Calm Calm - N/A   Scattered Clouds
11:55 PM 23.0 °F - 21.2 °F 93% 30.20 in 10.0 mi Calm Calm - N/A   Clear